TimeEDT,TemperatureF,Dew PointF,Humidity,Sea Level PressureIn,VisibilityMPH,Wind Direction,Wind SpeedMPH,Gust SpeedMPH,PrecipitationIn,Events,Conditions,WindDirDegrees,DateUTC
12:14 AM,39.2,28.4,65,30.04,10.0,West,9.2,-,N/A,,Clear,260,2014-04-02 04:14:00
12:34 AM,39.2,28.4,65,30.04,10.0,West,8.1,-,N/A,,Clear,270,2014-04-02 04:34:00
12:54 AM,39.2,28.4,65,30.04,10.0,Calm,Calm,-,N/A,,Clear,0,2014-04-02 04:54:00
1:14 AM,37.4,28.4,70,30.04,10.0,Calm,Calm,-,N/A,,Clear,0,2014-04-02 05:14:00
1:34 AM,37.4,28.4,70,30.05,10.0,Calm,Calm,-,N/A,,Clear,0,2014-04-02 05:34:00
1:54 AM,37.4,28.4,70,30.06,10.0,Calm,Calm,-,N/A,,Clear,0,2014-04-02 05:54:00
2:14 AM,37.4,28.4,70,30.05,10.0,Calm,Calm,-,N/A,,Scattered Clouds,0,2014-04-02 06:14:00
2:35 AM,37.4,30.2,75,30.07,10.0,Calm,Calm,-,N/A,,Mostly Cloudy,0,2014-04-02 06:35:00
2:55 AM,37.4,30.2,75,30.07,10.0,Calm,Calm,-,N/A,,Overcast,0,2014-04-02 06:55:00
3:15 AM,39.2,28.4,65,30.06,10.0,Calm,Calm,-,N/A,,Mostly Cloudy,0,2014-04-02 07:15:00
3:35 AM,39.2,28.4,65,30.06,10.0,Calm,Calm,-,N/A,,Scattered Clouds,0,2014-04-02 07:35:00
3:55 AM,39.2,28.4,65,30.06,10.0,Calm,Calm,-,N/A,,Mostly Cloudy,0,2014-04-02 07:55:00
4:15 AM,39.2,28.4,65,30.07,10.0,Calm,Calm,-,N/A,,Mostly Cloudy,0,2014-04-02 08:15:00
4:35 AM,39.2,28.4,65,30.08,10.0,Calm,Calm,-,N/A,,Scattered Clouds,0,2014-04-02 08:35:00
4:55 AM,37.4,28.4,70,30.07,10.0,Calm,Calm,-,N/A,,Scattered Clouds,0,2014-04-02 08:55:00
5:15 AM,37.4,26.6,65,30.07,10.0,Calm,Calm,-,N/A,,Scattered Clouds,0,2014-04-02 09:15:00
5:36 AM,37.4,26.6,65,30.09,10.0,Calm,Calm,-,N/A,,Scattered Clouds,0,2014-04-02 09:36:00
5:56 AM,37.4,26.6,65,30.09,10.0,Calm,Calm,-,N/A,,Scattered Clouds,0,2014-04-02 09:56:00
6:16 AM,37.4,26.6,65,30.09,10.0,Calm,Calm,-,N/A,,Mostly Cloudy,0,2014-04-02 10:16:00
6:36 AM,35.6,26.6,70,30.10,10.0,Calm,Calm,-,N/A,,Mostly Cloudy,0,2014-04-02 10:36:00
6:56 AM,35.6,26.6,70,30.11,10.0,Calm,Calm,-,N/A,,Scattered Clouds,0,2014-04-02 10:56:00
7:16 AM,35.6,24.8,65,30.12,10.0,Calm,Calm,-,N/A,,Scattered Clouds,0,2014-04-02 11:16:00
8:37 AM,37.4,28.4,70,30.15,10.0,Calm,Calm,-,N/A,,Scattered Clouds,0,2014-04-02 12:37:00
8:57 AM,37.4,26.6,65,30.15,10.0,NW,6.9,-,N/A,,Clear,320,2014-04-02 12:57:00
9:12 AM,37.4,24.8,60,30.15,10.0,Calm,Calm,-,N/A,,Clear,0,2014-04-02 13:12:00
9:32 AM,37.4,24.8,60,30.15,10.0,Calm,Calm,-,N/A,,Clear,0,2014-04-02 13:32:00
9:52 AM,39.2,24.8,56,30.15,10.0,Calm,Calm,-,N/A,,Clear,0,2014-04-02 13:52:00
10:12 AM,39.2,26.6,61,30.15,10.0,Calm,Calm,-,N/A,,Clear,0,2014-04-02 14:12:00
10:32 AM,39.2,26.6,61,30.16,10.0,Calm,Calm,-,N/A,,Clear,0,2014-04-02 14:32:00
10:52 AM,41.0,26.6,57,30.16,10.0,Calm,Calm,-,N/A,,Clear,0,2014-04-02 14:52:00
11:12 AM,42.8,26.6,53,30.17,10.0,West,6.9,-,N/A,,Clear,280,2014-04-02 15:12:00
11:32 AM,42.8,26.6,53,30.16,10.0,Calm,Calm,-,N/A,,Clear,0,2014-04-02 15:32:00
11:53 AM,44.6,26.6,49,30.16,10.0,WSW,3.5,-,N/A,,Clear,250,2014-04-02 15:53:00
12:13 PM,46.4,26.6,46,30.15,10.0,Calm,Calm,-,N/A,,Clear,0,2014-04-02 16:13:00
12:33 PM,46.4,28.4,50,30.15,10.0,Calm,Calm,-,N/A,,Clear,0,2014-04-02 16:33:00
12:53 PM,48.2,28.4,46,30.15,10.0,Calm,Calm,-,N/A,,Clear,0,2014-04-02 16:53:00
1:13 PM,48.2,28.4,46,30.15,10.0,Calm,Calm,-,N/A,,Clear,0,2014-04-02 17:13:00
1:53 PM,50.0,28.4,43,30.15,10.0,West,6.9,-,N/A,,Clear,280,2014-04-02 17:53:00
2:14 PM,51.8,28.4,41,30.14,10.0,Calm,Calm,-,N/A,,Clear,0,2014-04-02 18:14:00
2:34 PM,51.8,30.2,44,30.13,10.0,Calm,Calm,-,N/A,,Clear,0,2014-04-02 18:34:00
2:54 PM,51.8,28.4,41,30.13,10.0,Calm,Calm,-,N/A,,Clear,0,2014-04-02 18:54:00
3:14 PM,51.8,28.4,41,30.13,10.0,NW,8.1,-,N/A,,Clear,320,2014-04-02 19:14:00
3:34 PM,51.8,28.4,41,30.13,10.0,Calm,Calm,-,N/A,,Clear,0,2014-04-02 19:34:00
3:54 PM,51.8,28.4,41,30.13,10.0,Calm,Calm,-,N/A,,Clear,0,2014-04-02 19:54:00
4:14 PM,51.8,28.4,41,30.13,10.0,Calm,Calm,-,N/A,,Clear,0,2014-04-02 20:14:00
4:35 PM,53.6,26.6,35,30.12,10.0,Calm,Calm,-,N/A,,Clear,0,2014-04-02 20:35:00
4:55 PM,53.6,26.6,35,30.12,10.0,Calm,Calm,-,N/A,,Clear,0,2014-04-02 20:55:00
5:15 PM,53.6,21.2,28,30.11,10.0,Calm,Calm,-,N/A,,Clear,0,2014-04-02 21:15:00
5:35 PM,51.8,30.2,44,30.10,10.0,SE,3.5,-,N/A,,Clear,130,2014-04-02 21:35:00
5:55 PM,51.8,28.4,41,30.10,10.0,Calm,Calm,-,N/A,,Clear,0,2014-04-02 21:55:00
6:15 PM,51.8,28.4,41,30.10,10.0,Calm,Calm,-,N/A,,Clear,0,2014-04-02 22:15:00
6:35 PM,50.0,30.2,47,30.11,10.0,Calm,Calm,-,N/A,,Clear,0,2014-04-02 22:35:00
6:55 PM,48.2,30.2,50,30.11,10.0,South,8.1,-,N/A,,Clear,170,2014-04-02 22:55:00
7:16 PM,46.4,30.2,53,30.12,10.0,Calm,Calm,-,N/A,,Clear,0,2014-04-02 23:16:00
7:36 PM,44.6,28.4,53,30.12,10.0,Calm,Calm,-,N/A,,Scattered Clouds,0,2014-04-02 23:36:00
7:56 PM,44.6,30.2,57,30.12,10.0,Calm,Calm,-,N/A,,Scattered Clouds,0,2014-04-02 23:56:00
8:16 PM,42.8,30.2,61,30.13,10.0,Calm,Calm,-,N/A,,Scattered Clouds,0,2014-04-03 00:16:00
8:36 PM,42.8,28.4,57,30.14,10.0,Calm,Calm,-,N/A,,Overcast,0,2014-04-03 00:36:00
8:56 PM,42.8,28.4,57,30.14,10.0,Calm,Calm,-,N/A,,Scattered Clouds,0,2014-04-03 00:56:00
9:36 PM,42.8,30.2,61,30.15,10.0,Calm,Calm,-,N/A,,Clear,0,2014-04-03 01:36:00
9:56 PM,42.8,30.2,61,30.14,10.0,Calm,Calm,-,N/A,,Scattered Clouds,0,2014-04-03 01:56:00
10:16 PM,42.8,30.2,61,30.15,10.0,Calm,Calm,-,N/A,,Scattered Clouds,0,2014-04-03 02:16:00
10:37 PM,42.8,30.2,61,30.14,10.0,Calm,Calm,-,N/A,,Mostly Cloudy,0,2014-04-03 02:37:00
10:52 PM,42.8,30.2,61,30.15,10.0,NE,9.2,-,N/A,,Overcast,50,2014-04-03 02:52:00
11:12 PM,42.8,32.0,66,30.15,10.0,ENE,4.6,-,N/A,,Overcast,60,2014-04-03 03:12:00
11:32 PM,42.8,32.0,66,30.15,10.0,ENE,9.2,-,N/A,,Overcast,60,2014-04-03 03:32:00